Погода в Караганде

Погода в Караганде : погода сейчас, прогноз погоды и архив. Всё, что Вы хотите узнать о погоде в Караганде!

Поиск расширенной информации на нашем сайте:

Другие новости

Новости СМИ2

Главная страница сайта

Новости сайта

02.10.2013

Напоминаем, что на нашем новом сайте вы можете получить высокодетализированные прогнозы погоды по пунктам России, СНГ и мира (включающие важные для авиации метеовеличины, такие как направление и скорость ветра, видимость, явления погоды, количество и форма облачности, нижняя и верхняя граница облачности), а также ознакомиться с разнообразными материалами по авиационной метеорологии и подборкой полезных ссылок на эту тему.

Сайт Метеоцентр.Азия посвящён разработке технологий оптимизации авиаметеорологического обслуживания, включая проектирование и перспективное создание нескольких автоматизированных авиаметеорологических систем:
- система выпуска высокодетальных прогностических карт явлений погоды для нижнего воздушного пространства по России и ближнему зарубежью;
- система верификации прогнозов TAF (выпускаемых синоптиками официальных АМСГ РФ и ближнего зарубежья) и AUTOTAF (выпускаемых сайтом Метеоцентр.Азия) - выявление ошибок, онлайн-сопоставление с фактической погодой METAR, автоматическое внесение коррективов в прогнозы при резком отклонении фактической погоды от прогноза, подсчёт оправдываемости прогнозов по элементам и в целом;
- система обработки, анализа и отображения авиаметеорологической информации для применения провайдерами метеорологической информации.

Рекомендуем: управление репутацией в интернете

Погода в Караганде - сегодня

Время (UTC), дата Ветер
(°,м/с) 
Видим.   Явления Облачность Т
(°С)
Тd
(°С)
f(%) Тe
(°С)
Pmin
(гПа)
dP
(гПа)
Po
(мм)
O2
(г/м3)
Тmin Tmax R s Состояние
почвы
21 17.01.17 020 (С) 2000 м  дымка  8/8 300 м 
[St]
-13.9 -14.9 92 -14  1040.4  -0.6  726  309           
00 18.01.17 040 (СВ) 20000 м    3/0 верхняя 
[Ci fib]
-18.4 -20.3 85 -19  1040.8  -0.9  725  315           
03 18.01.17 020 (С) 20000 м    3/0 верхняя 
[Ci fib]
-19.4 -21.1 86 -20  1040.9  -0.2  725  316        31  неравномерный
сухой снег
100% 
06 18.01.17 060 (СВ) 20000 м    1/0 верхняя 
[Ci fib]
-12 -15.1 78 -12  1038.7  725  307  -19.7         
09 18.01.17 050 (СВ) 20000 м    6/0 верхняя 
[Ci fib]
-8.8 -13.1 71 -10  1036.4  -1.3  724  303           
12 18.01.17 020 (С) 20000 м    8/0 верхняя 
[Ci sp]
-10.7 -13.8 78 -13  1036.4  -0.5  724  305           
15 18.01.17 060 (СВ) 20000 м    5/0 верхняя 
[Ci fib]
-12.6 -15.8 77 -15  1036.6  -0.3  724  307    -8       
18 18.01.17 110 (В) 20000 м    ясно 
-14.2 -16.9 80 -14  1036.4  -0.7  723  309    -8       
21 18.01.17 120 (ЮВ) 20000 м    6/0 верхняя 
[Ci fib]
-14.2 -17.4 77 -16  1035.6  -0.7  723  308           
00 19.01.17 110 (В) 20000 м    8/0 верхняя 
[Ci fib]
-13.9 -17.1 77 -14  1034.6  -0.8  722  308           
03 19.01.17 130 (ЮВ) 20000 м    9/0 верхняя 
[Ci sp]
-13.7 -16.7 78 -16  1034.5  -0.1  722  308        31  неравномерный
сухой снег
100% 
06 19.01.17 180 (Ю) 20000 м    8/0 средняя, верхняя 
[Ac trans|Ci sp]
-10.2 -14.6 70 -12  1033.6  0.2  722  303  -15.2         
09 19.01.17 190 (Ю) 20000 м    8/0 средняя 
[Ac As]
-9.2 -13.6 70 -12  1032.3  -1  721  302           
12 19.01.17 180 (Ю) 20000 м    8/4 1000 м средняя, верхняя 
[Sc|Ac trans|Ci fib]
-9.2 -13.1 73 -11  1031.6  -0.6  721  302           
15 19.01.17 120 (ЮВ) 10 км  слаб. снег  10/8 300 м средняя 
[Frnb|As op]
-9.8 -12.4 81 -12  1031.4  -0.4  721  302    -9.2  0.0     
18 19.01.17 160 (Ю) 4000 м  снег  10/8 300 м средняя 
[Frnb|As op]
-8.2 -10 87 -10  1029.8  -1.1  720  300    -9.2  0.0     
21 19.01.17 190 (Ю) 10 км  слаб. снег  10/10 300 м 
[Frnb|Ns]
-6.6 -8.2 88 -10  1028.1  -1.2  719  298           
00 20.01.17 200 (Ю) 10 км  слаб. снег  10/10 300 м 
[Frnb|Ns]
-7.2 -8.9 88 -10  1027.4  -0.7  718  298           
03 20.01.17 210 (ЮЗ) 10 км  слаб. снег  10/10 300 м 
[Frnb|Ns]
-7.2 -8.9 88 -11  1026.6  -0.8  718  298      32  неравномерный
сухой снег
100% 
06 20.01.17 200 (Ю) 10 км  слаб. снег  8/4 300 м средняя 
[Frnb|As op]
-7.6 -10.2 82 -13  1026.8  0.1  718  298  -10       
09 20.01.17 210 (ЮЗ) 10 км  слаб. снег  10/0 средняя 
[Ac As]
-8.3 -11 81 -13  1025.8  -1.2  717  299           
12 20.01.17 210 (ЮЗ) 10 км  слаб. снег  10/4 1000 м средняя 
[Sc|As op]
-8.4 -10.7 83 -13  1025.2  -0.5  716  299           
15 20.01.17 200 (Ю) 10 км  слаб. снег  10/6 300 м средняя 
[Frnb|As op]
-8.8 -10.7 86 -13  1024.4  -0.9  716  299    -7.2  0.4     
18 20.01.17 190 (Ю) 10 км  слаб. снег  10/8 300 м средняя 
[Frnb|As op]
-7.6 -9.7 85 -11  1022.3  -1.6  715  297    -7.2  0.4     
21 20.01.17 200 (Ю) 10 км  слаб. снег  10/8 300 м средняя 
[Frnb|As op]
-8 -10.2 84 -12  1021  -1.3  714  297           
Время (UTC), дата Ветер
(°,м/с) 
Видим.   Явления Облачность Т
(°С)
Тd
(°С)
f(%) Тe
(°С)
Pmin
(гПа)
dP
(гПа)
Po
(мм)
O2
(г/м3)
Тmin Tmax R s Состояние
почвы

Для получения пояснительной информации подведите курсор к названию столбца.

ПОГОДА в Караганде - архив

Всё, что Вы хотите узнать о погоде в Караганде - удобно и подробно!

Выберите нужную дату (начиная с 1 января 2015* года) и нажмите кнопку "Найти".
Будут отображены архивные сводки погоды по пункту Караганда, начиная с указанной даты.


Отображать данные в формате CSV (для использования в таблицах Excel)


Внимание! Наш архив погоды предназначен исключительно для личного некоммерческого использования в познавательных целях. Если Вам необходимы официальные справки о состоянии погоды (для производственных, юридических, коммерческих и т.п. целей), обращайтесь в органы Росгидромета.

*Примечание: данная дата относится к архиву по метеостанциям СССР (Россия, СНГ, Балтия).
Архив по метеостанциям Зарубежной Европы и Азии (кроме Китая) хранится 10 дней, по другим регионам земного шара (Китай, Африка, Америка, Австралия, Океания) - 1 день.

Караганда - район местоположения метеостанции


Название, широта, долгота, высота метеостанции:
Караганда (город) 49.8°ш. 73.2°д. 553 м над ур. моря [Казахстан]

Дополнительная информация

В oтличие oт бoльшинства пoгoдных сайтoв мы публикуем пoдрoбную метеoинфoрмацию в детальнoм прoфессиoнальнoм фoрмате.

Характеристики температуры и влажнoсти вoздуха измеряются на высoте 2 м в тени вдали oт зданий и деревьев.
Скoрoсть ветра измеряется на высoте 10 м (на урoвне рoста челoвека скoрoсть ветра ниже в 1.5-2 раза). Если метеoстанция нахoдится в гoрoде или в лесу, тo скoрoсть ветра занижена на 2-4 м/с пo сравнению с oткрытым местoм. Скoрoсть ветра над акватoриями крупных рек и oзёр, а также на вершинах хoлмoв на 2-5 м/с выше, чем в oбычных услoвиях.
Атмoсфернoе давление в разных тoчках местнoсти мoжет значительнo oтличаться oт давления на метеoстанции, в зависимoсти oт услoвий рельефа (при пoдъёме на 10 м давление пoнижается примернo на 1 мм рт.ст.).